Regional Weather Roundup
Issued by NWS

Home | Current Version | Previous Version | Graphics & Text | Print | Product List | Glossary On
Versions: 1 2 3 4 5 6 7 8 9 10 11 12 13 14 15 16 17 18 19 20 21 22 23 24 25 26 27 28 29 30 31 32 33 34 35 36 37 38 39 40 41 42 43 44 45 46 47 48 49 50
083
ASUS43 KMKX 051600
RWRWI

WISCONSIN REGIONAL WEATHER ROUNDUP
NATIONAL WEATHER SERVICE MILWAUKEE/SULLIVAN WI
1000 AM CST MON DEC 05 2016

NOTE: "FAIR" INDICATES FEW OR NO CLOUDS BELOW 12,000 FEET WITH NO
SIGNIFICANT WEATHER AND/OR OBSTRUCTIONS TO VISIBILITY.

WIZ001-002-006>008-014>016-023>028-051700-
NORTHWEST WISCONSIN

CITY           SKY/WX    TMP DP  RH WIND       PRES   REMARKS
SUPERIOR ARPT  CLOUDY    33  29  85 CALM      29.81S
ASHLAND        MOSUNNY   34  28  79 SW5       29.83R WCI  30
HAYWARD        CLOUDY    30  28  92 SE7       29.82R FOG     WCI  23
SIREN          FOG       28  28  99 S5        29.81R VSB 3/4 WCI  23
CUMBERLAND     FOG       28  27  93 SE3       29.81S VSB 1/4
RICE LAKE      FOG       28  28  97 E5        29.83F VSB<1/4 WCI  23
CHETEK         FOG       28  28  99 SE6       29.84S VSB 1/4 WCI  21
LADYSMITH      FOG       30  30  99 S8        29.86R VSB 1/4 WCI  23
EAU CLAIRE     CLOUDY    30  30 100 SE9       29.84S FOG     WCI  22
MENOMONIE      FOG       30  30  99 E5        29.84S VSB 1/4 WCI  25
NEW RICHMOND   MOSUNNY   30  30 100 SE7       29.80R WCI  23
OSCEOLA        MOSUNNY   30  30 100 SE7       29.82R WCI  23
$$

WIZ003>005-009-010-017-018-051700-
NORTH CENTRAL WISCONSIN

CITY           SKY/WX    TMP DP  RH WIND       PRES   REMARKS
MANITOWISH WTR CLOUDY    31  30  97 SW5       29.81R WCI  26
ARBOR VITAE    MOSUNNY   33  29  86 SW7       29.82R WCI  27
WOODRUFF       MOSUNNY   33  29  86 SW7       29.82R WCI  27
RHINELANDER    MOSUNNY   32  29  88 SW6       29.84R WCI  26
EAGLE RIVER    PTSUNNY   32  28  86 W8        29.82R WCI  25
LAND O LAKES   PTSUNNY   33  29  86 W7        29.82S WCI  27
PHILLIPS       CLOUDY    29  29  98 S6        29.82R WCI  23
TOMAHAWK       CLOUDY    31  28  88 CALM      29.84S
MEDFORD        CLOUDY    30  29  97 S12       29.85R FOG     WCI  20
MERRILL        CLOUDY    31  30  96 W5        29.86S WCI  26
$$

WIZ029-030-035-036-043>047-051700-
CENTRAL WISCONSIN

CITY           SKY/WX    TMP DP  RH WIND       PRES   REMARKS
WAUSAU         CLOUDY    32  29  88 SW9       29.87R WCI  24
MOSINEE        NOT AVBL
MARSHFIELD     CLOUDY    31  29  92 S8        29.86R WCI  23
STEVENS POINT  CLOUDY    31  30  96 S8        29.90R WCI  24
WAUPACA        CLOUDY    36  31  84 S9        29.93R WCI  29
WAUTOMA        CLOUDY    34  31  88 S8        29.93R WCI  27
WISC RAPIDS    CLOUDY    33  31  92 S7        29.90S WCI  27
CAMP DOUGLAS   NOT AVBL
$$

WIZ011>013-019>022-031-037>040-048>050-051700-
NORTHEAST WISCONSIN

CITY           SKY/WX    TMP DP  RH WIND       PRES   REMARKS
ANTIGO         PTSUNNY   31  28  90 W6        29.86R WCI  25
SHAWANO        CLOUDY    37  32  84 SW6       29.90R WCI  32
OCONTO         CLOUDY    34  31  90 SW3       29.91R
STURGEON BAY   CLOUDY    36  32  85 SW6       29.92R WCI  31
GREEN BAY      CLOUDY    36  32  85 SW6       29.93R WCI  31
MANITOWOC      CLOUDY    37  32  81 SW9       29.95R WCI  31
APPLETON       CLOUDY    34  32  93 SW9       29.91R WCI  26
CLINTONVILLE   CLOUDY    34  30  86 W9        29.90S WCI  26
OSHKOSH        CLOUDY    34  30  85 S12       29.93R WCI  25
$$

WIZ032>034-041-042-053>061-051700-
SOUTHWEST WISCONSIN

CITY           SKY/WX    TMP DP  RH WIND       PRES   REMARKS
LA CROSSE      CLOUDY    36  33  89 S13       29.88S WCI  27
SPARTA         CLOUDY    33  33  96 S7        29.89S FOG     WCI  27
VIROQUA        CLOUDY    32  32 100 SE9       29.87F VSB<1/4 WCI  24
BOSCOBEL       CLOUDY    35  32  88 S3        29.93S FOG
PRAIRIE DU CHI CLOUDY    33  32  94 SE9       29.92R FOG     WCI  26
PLATTEVILLE    CLOUDY    32  32 100 S10       29.92F VSB<1/4 WCI  24
$$

WIZ056-057-062-063-064-067-068-051700-
SOUTH CENTRAL WISCONSIN

CITY           SKY/WX    TMP DP  RH WIND       PRES   REMARKS
REEDSBURG      CLOUDY    32  32 100 S10       29.91F FOG     WCI  24
BARABOO/DELLS  CLOUDY    33  32  98 S6        29.91S FOG     WCI  27
LONE ROCK      NOT AVBL
MINERAL POINT  FOG       34  34 100 SE10      29.92S VSB<1/4 WCI  26
MADISON        CLOUDY    33  32  96 S10       29.94S FOG     WCI  25
MIDDLETON      CLOUDY    34  34 100 SW7       29.94S WCI  28
WATERTOWN      CLOUDY    32  32 100 S9        29.96R FOG     WCI  25
MONROE         FOG       32  32 100 S14       29.94S VSB<1/4 WCI  22
JANESVILLE     CLOUDY    34  34 100 S8        29.97S FOG     WCI  27
$$

WIZ051-052-058>065-066-070>072-051700-
SOUTHEAST WISCONSIN

CITY           SKY/WX    TMP DP  RH WIND       PRES   REMARKS
MILWAUKEE      CLOUDY    34  31  88 S9        30.00R WCI  27
WAUKESHA       CLOUDY    30  30 100 SW7       29.98R FOG     WCI  23
MILWAUKEE/TIMM CLOUDY    34  28  80 SW5       29.99R FOG     WCI  30
RACINE         CLOUDY    33  30  88 SW10      30.02R FOG     WCI  25
BURLINGTON     CLOUDY    33  32  97 S10       29.99R FOG     WCI  24
KENOSHA        CLOUDY    33  31  92 SW8       30.01R FOG     WCI  26
FOND DU LAC    CLOUDY    34  30  85 S8        29.94R WCI  27
SHEBOYGAN      CLOUDY    33  29  85 SW9       29.96R WCI  25
WEST BEND      CLOUDY    32  32 100 SW9       29.96R WCI  24
JUNEAU         CLOUDY    32  31  98 S9        29.96R FOG     WCI  24
$$

LSZ147-162-051700-
LAKE SUPERIOR

STATION/POSITION TIME  TEMP    WIND        PRES    WAVE
                       AIR SEA DIR/SP/G            HT/PER
                 (UTC) (F)     (DEG/KT/KT) (MB)    (FT/S)
DEVILS ISLAND    1500   36     260/ 12/ 16 1009.7R
PORT WING        1540   36     180/  5/  6 1009.8S
SAXON HARBOR     1530   37     200/  2/  6 1010.2R
$$

LMZ867-665-643>646-051700-
LAKE MICHIGAN

STATION/POSITION TIME  TEMP    WIND        PRES    WAVE
                       AIR SEA DIR/SP/G            HT/PER
                 (UTC) (F)     (DEG/KT/KT) (MB)    (FT/S)
CHAMBERS ISLAND  1540   37     210/  8/ 13 1012.2R
NORTHPORT PIER   1540   40     280/  5/ 15 1012.2R
SISTER BAY       1453   39     280/ 20/ 24   N/A
ALGOMA LAKESHORE 1551          260/ 12/ 15   N/A
KEWAUNEE LAKESHO 1530   35     200/  7/  8 1013.3R
SHEBOYGAN LAKESH 1500   35     220/  8/ 10 1014.5R
PORT WASHINGTON  1540   36     210/  8/ 10 1016.3R
MILWAUKEE LAKESH 1530   34     240/  9/ 11   N/A
KENOSHA   LAKESH 1500   33     210/  6/  8 1016.3
$$

TC  - TEMPERATURE IN CELSIUS
VSB - VISIBILITY IN STATUTE MILES
WCI - WIND CHILL INDEX
HX  - HEAT INDEX





USA.gov is the U.S. government's official web portal to all federal, state and local government web resources and services.